Regional Weather Roundup
Issued by NWS Little Rock, AR

Home | Current Version | Previous Version | Graphics & Text | Print | Product List | Glossary On
Versions: 1 2 3 4 5 6 7 8 9 10 11 12 13 14 15 16 17 18 19 20 21 22 23 24 25 26 27 28 29 30 31
000
ASUS44 KLZK 251305
RWRLZK

WEATHER ROUNDUP FOR ARKANSAS
NATIONAL WEATHER SERVICE LITTLE ROCK AR
800 AM CDT TUE JUL 25 2017

NOTE: "FAIR" INDICATES FEW OR NO CLOUDS BELOW 12,000 FEET WITH NO
SIGNIFICANT WEATHER AND/OR OBSTRUCTIONS TO VISIBILITY.

ARZ001-003-010-029-251400-
NORTHWEST ARKANSAS

CITY           SKY/WX    TMP DP  RH WIND       PRES   REMARKS
FAYETTEVILLE   SUNNY     72  72 100 S5        30.12R
FORT SMITH     SUNNY     81  75  82 CALM      30.08R HX  87
HARRISON       SUNNY     79  72  79 NW3       30.12R
BENTONVILLE    SUNNY     77  72  83 CALM      30.12R
ROGERS         SUNNY     79  73  82 SW5       30.12R
SILOAM SPGS    SUNNY     75  70  83 S6        30.11R
HIGHFILL       SUNNY     75  73  93 CALM      30.11R
SPRINGDALE     SUNNY     77  73  88 CALM      30.13R
$$

ARZ004-005-016-251400-
NORTH CENTRAL ARKANSAS

CITY           SKY/WX    TMP DP  RH WIND       PRES   REMARKS
BATESVILLE     MOSUNNY   81  75  83 CALM      30.07S HX  86
FLIPPIN        SUNNY     79  70  73 CALM      30.07R
MTN HOME       SUNNY     79  74  84 CALM      30.08S
$$

ARZ040-041-251400-
WEST CENTRAL ARKANSAS

CITY           SKY/WX    TMP DP  RH WIND       PRES   REMARKS
MENA           SUNNY     77  75  94 CALM      30.13R
MOUNT IDA      SUNNY     77  73  87 CALM      30.09R
$$

ARZ009-017-025-026-028-251400-
NORTHEAST ARKANSAS

CITY           SKY/WX    TMP DP  RH WIND       PRES   REMARKS
JONESBORO      PTSUNNY   78  78 100 S5        30.07R
BLYTHEVILLE    SUNNY     80  78  94 S5        30.08R HX  88
$$

ARZ022-023-033-042-044-251400-
CENTRAL ARKANSAS

CITY           SKY/WX    TMP DP  RH WIND       PRES   REMARKS
LITTLE ROCK    MOSUNNY   79  77  94 SW6       30.09R
N LITTLE ROCK    N/A     80  75  85 CALM      30.07R HX  85
JACKSONVILLE   SUNNY     81  78  90 SW3       30.08R HX  89
CONWAY           N/A     81  75  83 CALM      30.06  HX  86
SEARCY         PTSUNNY   79  79 100 VRB3      30.09R FOG
HOT SPRINGS    SUNNY     80  75  84 CALM      30.10R HX  85
RUSSELLVILLE   SUNNY     78  76  93 CALM      30.08R
CLINTON        FAIR      77  75  94 CALM      30.09R
$$

ARZ036-251400-
EAST ARKANSAS

CITY           SKY/WX    TMP DP  RH WIND       PRES   REMARKS
WEST MEMPHIS   SUNNY     78  77  96 S6        30.07R
$$

ARZ050-053-066-070-073-251400-
SOUTHWEST ARKANSAS

CITY           SKY/WX    TMP DP  RH WIND       PRES   REMARKS
ARKADELPHIA    FAIR      78  76  93 CALM      30.10R
CAMDEN         SUNNY     81  73  78 CALM      30.09R HX  85
TEXARKANA      SUNNY     78  76  93 SW7       30.10R
EL DORADO      SUNNY     78  75  90 SW3       30.11R
DE QUEEN       SUNNY     77  76  96 CALM      30.08R FOG
$$

ARZ056-057-069-251400-
SOUTHEAST ARKANSAS

CITY           SKY/WX    TMP DP  RH WIND       PRES   REMARKS
PINE BLUFF     SUNNY     78  75  90 W6        30.09R
STUTTGART      SUNNY     81  66  61 SW7       30.08S
MONTICELLO     MOSUNNY   79  75  87 W6        30.10R

$$






USA.gov is the U.S. government's official web portal to all federal, state and local government web resources and services.